Carson City, NV

7:59 AM PDT on August 20, 2017 (GMT -0700)
Carson

Weather History for KCXP - September, 2013

Change the Weather History Date:

Wednesday, September 18, 2013

  Actual Average Record
Temperature  
Mean Temperature 55 °F -  
Max Temperature 71 °F 76 °F 89 °F (2016)
Min Temperature 39 °F 42 °F 39 °F (2013)
Degree Days  
Heating Degree Days 10    
Growing Degree Days 5 (Base 50)    
Moisture  
Dew Point 31 °F    
Average Humidity 42    
Maximum Humidity 76    
Minimum Humidity 19    
Precipitation  
Precipitation 0.00 in - - ()
Sea Level Pressure  
Sea Level Pressure 30.08 in    
Wind  
Wind Speed 5 mph (NE)    
Max Wind Speed 16 mph    
Max Gust Speed 22 mph    
Visibility 10 miles    
Events      
Averages and records for this station are not official NWS values.
T = Trace of Precipitation, MM = Missing Value Source: NWS Daily Summary

Daily Weather History Graph

Daily Weather History Graph

Search for Another Location

Airport or City:

Trip Planner

Search our weather history database for the weather conditions in past years. The results will help you decide how hot, cold, wet, or windy it might be!

Date:

Astronomy

Sep. 18, 2013 Rise Set
Actual Time 6:43 AM PDT 7:01 PM PDT
Civil Twilight 6:16 AM PDT 7:28 PM PDT
Nautical Twilight 5:45 AM PDT 7:59 PM PDT
Astronomical Twilight 5:12 AM PDT 8:31 PM PDT
Moon 6:28 PM PDT (9/18) 5:51 AM PDT (9/18)
Length of Visible Light 13h 12m
Length of Day
12h 18m
Waxing Gibbous, 99% of the Moon is Illuminated
Sep 18
Waxing Gibbous
Sep 19
Full
Sep 26
Last Quarter
Oct 4
New
Oct 11
First Quarter

Hourly Weather History & Observations

Time (PDT) Temp. Windchill Dew Point Humidity Pressure Visibility Wind Dir Wind Speed Gust Speed Precip Events Conditions
12:15 AM 53.6 °F - 35.6 °F 51% 30.03 in 10.0 mi WSW 3.5 mph - N/A   Clear
12:35 AM 53.6 °F - 37.4 °F 54% 30.04 in 10.0 mi North 10.4 mph 18.4 mph N/A   Clear
12:55 AM 53.6 °F - 35.6 °F 51% 30.04 in 10.0 mi NNE 6.9 mph - N/A   Clear
1:15 AM 53.6 °F - 35.6 °F 51% 30.05 in 10.0 mi NNW 13.8 mph 20.7 mph N/A   Clear
1:35 AM 51.8 °F - 37.4 °F 58% 30.05 in 10.0 mi NW 4.6 mph - N/A   Clear
1:55 AM 50.0 °F - 37.4 °F 62% 30.05 in 10.0 mi NW 9.2 mph - N/A   Clear
2:15 AM 50.0 °F - 37.4 °F 62% 30.05 in 10.0 mi North 6.9 mph - N/A   Clear
2:35 AM 50.0 °F - 37.4 °F 62% 30.05 in 10.0 mi NNE 3.5 mph - N/A   Clear
2:55 AM 50.0 °F - 37.4 °F 62% 30.05 in 10.0 mi North 9.2 mph - N/A   Clear
3:15 AM 50.0 °F - 37.4 °F 62% 30.05 in 10.0 mi NW 9.2 mph - N/A   Clear
3:35 AM 48.2 °F - 35.6 °F 62% 30.05 in 10.0 mi NNE 3.5 mph - N/A   Clear
3:55 AM 46.4 °F - 35.6 °F 66% 30.05 in 10.0 mi Calm Calm - N/A   Clear
4:15 AM 46.4 °F 44.3 °F 35.6 °F 66% 30.05 in 10.0 mi WSW 4.6 mph - N/A   Clear
4:35 AM 46.4 °F - 35.6 °F 66% 30.06 in 10.0 mi Calm Calm - N/A   Clear
4:55 AM 44.6 °F - 35.6 °F 71% 30.06 in 10.0 mi Calm Calm - N/A   Clear
5:15 AM 44.6 °F - 35.6 °F 71% 30.06 in 10.0 mi Calm Calm - N/A   Clear
5:35 AM 44.6 °F - 33.8 °F 66% 30.07 in 10.0 mi Calm Calm - N/A   Partly Cloudy
5:55 AM 41.0 °F - 33.8 °F 76% 30.08 in 10.0 mi Calm Calm - N/A   Partly Cloudy
6:15 AM 41.0 °F - 33.8 °F 76% 30.08 in 10.0 mi Calm Calm - N/A   Clear
6:35 AM 39.2 °F - 32.0 °F 75% 30.10 in 10.0 mi Calm Calm - N/A   Clear
6:55 AM 41.0 °F - 32.0 °F 70% 30.10 in 10.0 mi Calm Calm - N/A   Clear
7:15 AM 41.0 °F - 32.0 °F 70% 30.11 in 10.0 mi Calm Calm - N/A   Clear
7:35 AM 44.6 °F - 32.0 °F 61% 30.11 in 10.0 mi Calm Calm - N/A   Clear
7:55 AM 44.6 °F - 32.0 °F 61% 30.12 in 10.0 mi Calm Calm - N/A   Clear
8:15 AM 46.4 °F 45.2 °F 32.0 °F 57% 30.12 in 10.0 mi SSW 3.5 mph - N/A   Clear
8:35 AM 48.2 °F - 32.0 °F 54% 30.12 in 10.0 mi Calm Calm - N/A   Clear
8:55 AM 50.0 °F - 32.0 °F 50% 30.13 in 10.0 mi WNW 3.5 mph - N/A   Clear
9:15 AM 50.0 °F - 33.8 °F 54% 30.14 in 10.0 mi Calm Calm - N/A   Partly Cloudy
9:35 AM 51.8 °F - 35.6 °F 54% 30.14 in 10.0 mi Calm Calm - N/A   Mostly Cloudy
9:55 AM 55.4 °F - 35.6 °F 47% 30.13 in 10.0 mi Calm Calm - N/A   Mostly Cloudy
10:15 AM 55.4 °F - 35.6 °F 47% 30.13 in 10.0 mi Calm Calm - N/A   Partly Cloudy
10:35 AM 57.2 °F - 35.6 °F 44% 30.13 in 10.0 mi SSW 3.5 mph - N/A   Clear
10:55 AM 57.2 °F - 35.6 °F 44% 30.13 in 10.0 mi East 5.8 mph - N/A   Partly Cloudy
11:15 AM 59.0 °F - 35.6 °F 42% 30.12 in 10.0 mi Calm Calm - N/A   Clear
11:35 AM 59.0 °F - 33.8 °F 39% 30.12 in 10.0 mi North 4.6 mph - N/A   Clear
11:55 AM 59.0 °F - 35.6 °F 42% 30.12 in 10.0 mi Calm Calm - N/A   Clear
12:15 PM 62.6 °F - 33.8 °F 34% 30.10 in 10.0 mi WSW 4.6 mph - N/A   Clear
12:35 PM 62.6 °F - 33.8 °F 34% 30.10 in 10.0 mi SW 3.5 mph - N/A   Clear
12:55 PM 64.4 °F - 33.8 °F 32% 30.10 in 10.0 mi North 5.8 mph - N/A   Clear
1:15 PM 64.4 °F - 32.0 °F 30% 30.09 in 10.0 mi East 3.5 mph - N/A   Clear
1:35 PM 66.2 °F - 32.0 °F 28% 30.08 in 10.0 mi East 5.8 mph - N/A   Clear
1:55 PM 66.2 °F - 32.0 °F 28% 30.07 in 10.0 mi NE 6.9 mph - N/A   Clear
2:15 PM 68.0 °F - 32.0 °F 26% 30.06 in 10.0 mi Calm Calm - N/A   Clear
2:35 PM 69.8 °F - 32.0 °F 25% 30.05 in 10.0 mi East 8.1 mph - N/A   Clear
2:55 PM 68.0 °F - 32.0 °F 26% 30.05 in 10.0 mi NNE 6.9 mph - N/A   Clear
3:15 PM 71.6 °F - 30.2 °F 22% 30.04 in 10.0 mi ESE 4.6 mph - N/A   Clear
3:35 PM 71.6 °F - 28.4 °F 20% 30.03 in 10.0 mi ENE 4.6 mph - N/A   Clear
3:55 PM 71.6 °F - 28.4 °F 20% 30.03 in 10.0 mi East 10.4 mph - N/A   Clear
4:15 PM 71.6 °F - 28.4 °F 20% 30.02 in 10.0 mi ENE 12.7 mph 18.4 mph N/A   Clear
4:35 PM 71.6 °F - 28.4 °F 20% 30.02 in 10.0 mi East 11.5 mph 17.3 mph N/A   Clear
4:55 PM 71.6 °F - 28.4 °F 20% 30.02 in 10.0 mi East 13.8 mph 21.9 mph N/A   Clear
5:15 PM 71.6 °F - 28.4 °F 20% 30.02 in 10.0 mi ENE 16.1 mph - N/A   Clear
5:35 PM 71.6 °F - 26.6 °F 19% 30.02 in 10.0 mi ENE 15.0 mph 19.6 mph N/A   Clear
5:55 PM 69.8 °F - 26.6 °F 20% 30.02 in 10.0 mi East 15.0 mph 20.7 mph N/A   Clear
6:15 PM 68.0 °F - 26.6 °F 21% 30.02 in 10.0 mi ENE 13.8 mph - N/A   Clear
6:35 PM 66.2 °F - 24.8 °F 21% 30.03 in 10.0 mi ENE 12.7 mph - N/A   Clear
6:55 PM 66.2 °F - 24.8 °F 21% 30.04 in 10.0 mi ENE 13.8 mph - N/A   Clear
7:15 PM 64.4 °F - 24.8 °F 22% 30.04 in 10.0 mi ENE 13.8 mph - N/A   Clear
7:35 PM 64.4 °F - 24.8 °F 22% 30.05 in 10.0 mi NE 12.7 mph 18.4 mph N/A   Clear
7:55 PM 64.4 °F - 24.8 °F 22% 30.06 in 10.0 mi NE 11.5 mph - N/A   Clear
8:15 PM 64.4 °F - 24.8 °F 22% 30.07 in 10.0 mi ENE 11.5 mph 16.1 mph N/A   Clear
8:35 PM 62.6 °F - 24.8 °F 24% 30.08 in 10.0 mi NE 11.5 mph - N/A   Clear
8:55 PM 62.6 °F - 24.8 °F 24% 30.08 in 10.0 mi NE 11.5 mph - N/A   Clear
9:15 PM 62.6 °F - 24.8 °F 24% 30.09 in 10.0 mi NE 12.7 mph - N/A   Clear
9:35 PM 62.6 °F - 24.8 °F 24% 30.10 in 10.0 mi NE 9.2 mph - N/A   Clear
9:55 PM 59.0 °F - 26.6 °F 29% 30.11 in 10.0 mi SSW 3.5 mph - N/A   Clear
10:15 PM 57.2 °F - 26.6 °F 31% 30.11 in 10.0 mi Calm Calm - N/A   Clear
10:35 PM 55.4 °F - 26.6 °F 33% 30.11 in 10.0 mi Calm Calm - N/A   Clear
10:55 PM 55.4 °F - 26.6 °F 33% 30.11 in 10.0 mi NW 3.5 mph - N/A   Clear
11:15 PM 53.6 °F - 26.6 °F 35% 30.11 in 10.0 mi Calm Calm - N/A   Clear
11:35 PM 50.0 °F - 26.6 °F 40% 30.11 in 10.0 mi Calm Calm - N/A   Clear
11:55 PM 50.0 °F - 24.8 °F 37% 30.11 in 10.0 mi Calm Calm - N/A   Clear